DateTimeUTC,F1_A11,F1_S11,BsB_S11,BsG_S11,BsR_S11,BbsB_S11,BbsG_S11,BbsR_S11,BaB_A11,BaG_A11,BaR_A11,Tu_S11,T_S11,Uu_S11,U_S11,P_S11,T1_A11
2021-08-23T15:00:00Z,00000200,20000000,,,,,,,0000.18,-000.05,0000.03,19.5,26.2,08.1,05.4,0676.1,31.0
2021-08-23T15:01:00Z,00000200,20000000,,,,,,,0000.22,0000.08,0000.43,19.5,26.2,08.1,05.4,0676.1,31.0
2021-08-23T15:02:00Z,00000200,20000000,,,,,,,-000.08,-000.02,-000.38,19.5,26.2,08.1,05.4,0676.1,31.1
2021-08-23T15:03:00Z,00000200,60000000,,,,,,,0000.84,0001.03,0000.73,19.5,26.2,08.1,05.4,0676.1,31.1
2021-08-23T15:04:00Z,00000200,40000000,0006.35,0005.50,0003.63,0000.08,0000.59,0000.55,0001.48,0001.15,0000.91,19.6,26.1,08.0,05.4,0677.0,31.1
2021-08-23T15:05:00Z,00000200,00000000,0006.76,0005.25,0003.56,0000.96,0000.58,0000.46,0001.44,0001.31,0001.43,19.7,26.0,08.0,05.4,0677.1,31.1
2021-08-23T15:06:00Z,00000200,00000000,0006.76,0005.48,0003.25,0000.58,0000.78,0000.71,0001.37,0001.14,0000.90,19.7,26.0,08.1,05.5,0677.1,31.0
2021-08-23T15:07:00Z,00000200,00000000,0006.85,0005.47,0003.60,0001.05,0000.76,0000.69,0001.54,0001.60,0000.91,19.7,26.0,08.2,05.6,0677.1,31.0
2021-08-23T15:08:00Z,00000200,00000000,0005.84,0005.54,0003.85,0000.91,0000.40,0000.42,0001.28,0001.33,0001.40,19.7,26.0,08.1,05.5,0677.1,31.0
2021-08-23T15:09:00Z,00000200,00000000,0006.56,0005.34,0003.66,0000.84,0000.97,0000.31,0001.50,0001.56,0000.97,19.7,26.0,08.1,05.5,0677.1,31.0
2021-08-23T15:10:00Z,00000200,00000000,0006.91,0005.13,0003.50,0000.69,0000.71,0000.47,0001.23,0000.93,0000.97,19.7,26.0,08.1,05.5,0677.1,31.1
2021-08-23T15:11:00Z,00000200,00000000,0006.79,0005.47,0003.07,0000.48,0000.51,0000.20,0001.72,0001.50,0001.26,19.7,26.0,08.1,05.5,0677.1,31.0
2021-08-23T15:12:00Z,00000200,00000000,0005.98,0005.22,0003.85,0000.74,0000.77,0000.59,0001.28,0001.30,0001.16,19.7,26.0,08.2,05.6,0677.1,31.0
2021-08-23T15:13:00Z,00000200,00000000,0006.60,0005.16,0003.14,0000.54,0000.42,0000.60,0001.73,0001.34,0000.77,19.7,26.0,08.2,05.6,0677.1,31.0
2021-08-23T15:14:00Z,00000200,00000000,0007.17,0005.18,0003.54,0000.59,0000.94,0000.56,0001.43,0001.47,0001.15,19.7,26.0,08.1,05.5,0677.1,31.0
2021-08-23T15:15:00Z,00000200,00000000,0006.05,0005.60,0003.43,0000.37,0000.69,0000.22,0001.09,0001.06,0001.06,19.7,26.0,08.1,05.5,0677.1,31.0
2021-08-23T15:16:00Z,00000200,00000000,0007.33,0005.38,0003.30,0000.83,0000.32,0000.38,0001.68,0001.39,0001.09,19.7,26.0,08.1,05.5,0677.1,31.0
2021-08-23T15:17:00Z,00000200,00000000,0006.84,0005.53,0003.61,0000.53,0000.58,0000.48,0001.09,0001.01,0001.07,19.7,26.0,08.1,05.6,0677.1,31.1
2021-08-23T15:18:00Z,00000200,00000000,0006.07,0005.73,0003.54,0001.03,0000.60,0000.30,0001.26,0001.32,0001.03,19.7,26.0,08.1,05.5,0677.1,31.0
2021-08-23T15:19:00Z,00000200,00000000,0006.66,0005.41,0003.27,0001.06,0000.67,0000.57,0001.67,0001.52,0001.16,19.7,26.0,08.1,05.5,0677.1,31.0
2021-08-23T15:20:00Z,00000200,00000000,0006.13,0005.57,0003.55,0000.47,0000.72,0000.44,0001.72,0001.52,0001.00,19.7,26.0,08.0,05.5,0677.1,31.0
2021-08-23T15:21:00Z,00000200,00000000,0007.29,0005.38,0003.38,0001.08,0000.71,0000.53,0000.78,0001.19,0000.88,19.7,26.0,08.1,05.5,0677.1,31.1
2021-08-23T15:22:00Z,00000200,00000000,0006.45,0005.74,0003.39,0001.21,0000.50,0000.23,0001.75,0001.41,0001.16,19.7,26.0,08.0,05.5,0677.1,31.0
2021-08-23T15:23:00Z,00000200,00000000,0006.96,0005.50,0003.63,0000.93,0000.53,0000.51,0001.54,0001.40,0001.52,19.7,26.0,08.1,05.5,0677.1,31.0
2021-08-23T15:24:00Z,00000200,00000000,0007.70,0005.78,0003.79,0001.41,0000.68,0000.46,0001.33,0001.26,0001.10,19.7,26.0,08.0,05.5,0677.1,31.0
2021-08-23T15:25:00Z,00000200,00000000,0007.48,0005.50,0003.84,0000.30,0000.36,0000.53,0001.61,0001.33,0000.79,19.8,26.0,08.1,05.6,0677.1,31.0
2021-08-23T15:26:00Z,00000200,00000000,0006.45,0005.48,0003.53,0000.92,0000.86,0000.24,0000.61,0001.43,0001.04,19.8,26.0,08.0,05.5,0677.1,31.0
2021-08-23T15:27:00Z,00000200,00000000,0007.72,0005.36,0003.56,0000.46,0000.47,0000.27,0001.69,0000.94,0001.06,19.8,26.0,08.1,05.5,0677.1,31.1
2021-08-23T15:28:00Z,00000200,00000000,0006.30,0005.38,0003.72,0000.80,0000.90,0000.60,0001.40,0001.80,0000.90,19.8,26.1,08.2,05.6,0677.1,31.0
2021-08-23T15:29:00Z,00000200,00000000,0006.32,0005.84,0003.54,0000.48,0001.07,0000.39,0001.28,0000.80,0001.11,19.8,26.0,08.0,05.5,0677.1,31.0
2021-08-23T15:30:00Z,00000200,00000000,0006.85,0005.60,0003.61,0000.88,0000.79,0000.36,0001.88,0001.78,0000.96,19.8,26.0,08.0,05.4,0677.1,31.0
2021-08-23T15:31:00Z,00000200,00000000,0006.56,0005.21,0003.58,0001.02,0001.00,0000.52,0001.04,0001.13,0001.11,19.8,26.0,08.1,05.5,0677.1,31.0
2021-08-23T15:32:00Z,00000200,00000000,0006.61,0005.65,0003.46,0000.85,0000.67,0000.44,0001.44,0001.31,0001.50,19.8,26.1,08.1,05.5,0677.2,31.1
2021-08-23T15:33:00Z,00000200,00000000,0007.26,0005.45,0003.62,0000.29,0000.81,0000.47,0001.62,0001.42,0001.13,19.8,26.0,08.0,05.5,0677.1,31.1
2021-08-23T15:34:00Z,00000200,00000000,0006.90,0005.42,0003.29,0000.85,0000.59,0000.62,0001.29,0001.22,0000.96,19.8,26.1,08.0,05.5,0677.1,31.0
2021-08-23T15:35:00Z,00000200,00000000,0006.92,0005.60,0003.60,0000.96,0000.55,0000.68,0001.59,0001.29,0000.83,19.8,26.1,08.0,05.5,0677.2,31.1
2021-08-23T15:36:00Z,00000200,00000000,0007.06,0005.55,0003.66,0000.41,0000.56,0000.24,0001.31,0001.22,0000.97,19.8,26.1,08.0,05.5,0677.2,31.0
2021-08-23T15:37:00Z,00000200,00000000,0006.57,0005.62,0003.47,0000.89,0000.50,0000.27,0001.84,0001.45,0001.43,19.8,26.1,08.0,05.5,0677.1,31.0
2021-08-23T15:38:00Z,00000200,00000000,0007.33,0005.75,0003.32,0000.50,0000.72,0000.40,0000.86,0001.56,0001.29,19.8,26.1,08.0,05.5,0677.2,31.0
2021-08-23T15:39:00Z,00000200,00000000,0006.84,0005.57,0003.87,0000.48,0000.57,0000.48,0001.67,0001.26,0000.66,19.9,26.1,08.1,05.5,0677.1,31.1
2021-08-23T15:40:00Z,00000200,00000000,0007.01,0005.52,0003.56,0001.08,0000.67,0000.54,0001.44,0001.11,0001.12,19.9,26.1,07.9,05.4,0677.2,31.1
2021-08-23T15:41:00Z,00000200,00000000,0006.59,0005.25,0003.30,0000.49,0000.70,0000.54,0001.52,0001.74,0001.47,19.9,26.1,08.0,05.5,0677.2,31.0
2021-08-23T15:42:00Z,00000200,00000000,0006.79,0005.69,0003.59,0000.44,0000.41,0000.49,0001.25,0000.98,0000.80,19.9,26.1,08.1,05.5,0677.2,31.1
2021-08-23T15:43:00Z,00000200,00000000,0006.75,0005.37,0003.86,0000.28,0000.61,0000.51,0001.80,0001.29,0001.25,19.9,26.1,08.0,05.5,0677.2,31.1
2021-08-23T15:44:00Z,00000200,00000000,0007.24,0005.52,0003.62,0000.39,0000.43,0000.60,0001.33,0001.51,0000.91,19.9,26.1,08.0,05.5,0677.2,31.1
2021-08-23T15:45:00Z,00000200,00000000,0007.24,0006.14,0003.54,0000.89,0000.75,0000.57,0001.34,0001.17,0001.20,19.9,26.1,07.9,05.5,0677.3,31.1
2021-08-23T15:46:00Z,00000200,00000000,0007.19,0005.67,0003.42,0000.30,0000.80,0000.26,0001.04,0001.21,0000.64,19.9,26.1,07.8,05.4,0677.2,31.1
2021-08-23T15:47:00Z,00000200,00000000,0007.25,0005.96,0003.53,0001.00,0000.92,0000.59,0001.53,0001.27,0000.83,19.9,26.1,07.9,05.4,0677.2,31.1
2021-08-23T15:48:00Z,00000200,00000000,0006.36,0005.50,0002.94,0001.00,0000.63,-000.09,0001.27,0001.21,0001.59,19.9,26.1,07.7,05.3,0677.2,31.1
2021-08-23T15:49:00Z,00000200,00000000,0005.94,0005.56,0003.41,0001.19,0000.28,0000.50,0001.37,0001.26,0001.10,19.9,26.1,07.7,05.3,0677.2,31.1
2021-08-23T15:50:00Z,00000200,00000000,0006.73,0005.70,0003.63,0000.89,0000.72,0000.30,0001.33,0001.50,0000.78,19.9,26.1,07.7,05.3,0677.2,31.1
2021-08-23T15:51:00Z,00000200,00000000,0006.51,0005.11,0003.67,-000.07,0000.62,0000.23,0001.42,0001.13,0000.98,20.0,26.1,07.7,05.3,0677.3,31.1
2021-08-23T15:52:00Z,00000200,00000000,0007.00,0005.40,0003.55,0000.46,0000.69,0000.68,0001.21,0000.93,0001.33,20.0,26.1,07.6,05.3,0677.3,31.1
2021-08-23T15:53:00Z,00000200,00000000,0006.80,0005.29,0003.63,0000.58,0000.64,0000.70,0001.36,0001.49,0000.90,20.0,26.2,07.6,05.2,0677.3,31.1
2021-08-23T15:54:00Z,00000200,00000000,0006.34,0005.01,0003.43,0000.43,0000.59,0000.45,0001.39,0001.54,0000.94,20.0,26.2,07.5,05.2,0677.3,31.0
2021-08-23T15:55:00Z,00000200,00000000,0006.91,0005.40,0003.64,0000.22,0000.61,0000.65,0001.24,0001.04,0001.02,20.0,26.2,07.5,05.2,0677.3,31.0
2021-08-23T15:56:00Z,00000200,00000000,0006.31,0005.59,0003.49,0001.40,0000.75,0000.49,0001.51,0001.20,0000.91,20.0,26.2,07.5,05.1,0677.3,31.1
2021-08-23T15:57:00Z,00000200,40000000,,,,,,,0000.89,0000.68,0000.48,20.0,26.2,08.0,05.5,0677.1,31.1
2021-08-23T15:58:00Z,00000200,60000000,,,,,,,-000.46,-000.37,0000.02,19.8,26.3,07.7,05.2,0676.3,31.1
2021-08-23T15:59:00Z,00000200,20000000,,,,,,,-000.01,0000.01,0000.05,19.8,26.4,07.5,05.0,0676.3,31.1
